FREGAT DEB, 45974

Orbit data source: Space-Track

FREGAT DEB, 45974 is space debris in LEO originally from a launch on Mon, 18 Jul 2011 UTC launched from the Tyuratam Missile And Space Complex (TTMTR). Debris objects in space refer to the collection of defunct objects orbiting the Earth. Examples of debris include non-operational satellites, rocket bodies, and fragments generated from explosions, collisions, or faulty payload assembly.

Loading next visibility...
Identifier
45974, 2011-037GF
Orbit
LEO
Country
Flag of CISCIS
Related business
Manufacturer
Lavochkin
Mission
Spacecraft
Bus & Motor
Unknown
Mass
Unknown
Launch date (UTC)
2011-07-18 (15 years ago)
Launch vehicle
Unknown
Launch site
Tyuratam Missile And Space Complex (TTMTR)
Object type
Payload
Rocket body
Debris
Shape & HBR
Unknown shape, 0.1 m
Radar Cross Section
Medium (>0.1 m² and <1 m²)

Expand to show TLE details & history
Last TLE update: 3 weeks ago

TLE from 3 weeks ago
0 FREGAT DEB
1 45974U 11037GF  26151.32861068  .00000680  00000-0  86576-3 0  9999
2 45974  51.4779 146.0093 2162042 223.4632 117.4220 10.29092558219354
Epoch: 2026-05-31T07:53Z
TLE epoch observation values (Epoch: 2026-05-31T07:53:11.962Z)
Latitude
-0.00002°
Longitude
138.87758°
Altitude
3,719.624 km
Speed
5.859 km/s
True Right ascension
09h 44m 02s
True Declination
0° 00' 00"
Sunlit
Object was in daylight at epoch
Visualization orbit readout
Latitude
Unknown
Longitude
Unknown
Altitude
Unknown
Speed
Unknown
Apparent Right ascension
Unknown
Apparent Declination
Unknown
Sunlit
N/A
Visualization observer readout
Local Sidereal Time
21:36:09
Azimuth
Unknown
Elevation
Unknown
Doppler factor
Unknown
Orbital elements
Apogee altitude
4,480.953 km
Perigee altitude
620.119 km
Semi-major axis
8,928.673 km
Eccentricity
0.2162
Inclination
51.4779°
RAAN
146.0093°
Arg. of periapsis
223.4632°
True anomaly
136.61296°
Mean anomaly
117.422°
Eccentric anomaly
127.27878°
Mean motion
2.57254 °/min
Orbital period
139.94 mins
BSTAR
0.00086576
Loading maneuver chart data...
Computing Atmospheric mass density...
Loading historical data...
Loading historical data...
Loading historical data...
Loading historical data...
Loading historical data...
Loading historical data...
Loading historical data...

Documentation

Showing up to 5 results
|